Location: Seven Kings
(51.5667°N, 0.1000°E)
Time: 02:49:43
(UTC+00:00)

CZ-4C R/B - Pass Details

Date: 29 October 2020
Orbit: 624 x 1378 km, 63.4° (Epoch: 27 November)

Event Time Altitude Azimuth Distance (km) Brightness Sun altitude
Rises 20:26:24 0° 314° (NW) 3,761 6.5 -35.5°
Reaches altitude 10° 20:28:50 10° 313° (NW) 2,909 5.7 -35.9°
Enters shadow 20:34:49 63° 277° (W) 1,319 3.2 -36.7°
